GEFSNE_prec_meanprecacc_168.txt.gz
Total_Precipitation_Accumulation
0.94 1.00 1.05 1.03 1.05 1.10 1.15 1.23 1.32 1.30 1.18 0.99 0.94 0.90 0.88 0.85 0.91 0.80 0.80 0.76 0.72 0.78 0.80 0.85 0.92 1.07 1.12 1.01 0.90 0.82 0.78 0.80 0.87 0.98 1.13 1.30 1.46 1.60
0.77 0.74 0.74 0.74 0.76 0.78 0.85 0.95 1.06 1.14 1.14 0.96 0.88 0.92 0.91 0.82 0.92 0.84 0.82 0.82 0.79 1.00 1.11 1.03 0.99 1.17 1.32 1.27 1.09 0.96 0.90 0.86 0.86 0.90 0.99 1.12 1.26 1.41
0.56 0.57 0.61 0.60 0.64 0.64 0.67 0.78 0.93 1.06 1.16 1.00 0.88 0.91 0.96 0.92 0.93 0.90 0.85 0.85 0.96 1.35 1.57 1.75 1.48 1.37 1.45 1.40 1.27 1.08 0.95 0.91 0.93 0.97 1.04 1.13 1.17 1.21
0.48 0.51 0.54 0.56 0.57 0.58 0.62 0.70 0.84 1.00 1.17 1.14 0.98 0.99 1.00 0.98 1.04 1.03 0.91 0.81 0.87 1.31 1.64 1.96 1.93 1.72 1.72 1.55 1.36 1.13 0.99 0.93 0.95 1.00 1.05 1.08 1.13 1.18
0.44 0.49 0.54 0.61 0.63 0.63 0.68 0.72 0.79 0.88 1.07 1.16 1.08 1.08 1.14 1.16 1.27 1.18 1.03 0.99 0.82 1.07 1.49 1.82 2.01 2.08 2.16 2.00 1.68 1.31 1.04 0.90 0.84 0.87 0.93 0.96 0.97 0.97
0.41 0.49 0.55 0.64 0.70 0.72 0.72 0.76 0.81 0.90 1.00 1.13 1.16 1.18 1.23 1.30 1.35 1.32 1.16 1.02 0.90 0.89 1.34 1.82 2.16 2.21 2.39 2.50 2.18 1.66 1.23 0.96 0.81 0.75 0.70 0.68 0.68 0.68
0.44 0.46 0.50 0.60 0.69 0.66 0.63 0.65 0.78 0.96 1.02 1.14 1.18 1.17 1.15 1.25 1.27 1.12 1.04 0.95 0.85 0.83 1.02 1.43 2.12 2.46 2.53 2.60 2.48 1.96 1.47 1.12 0.89 0.76 0.67 0.63 0.63 0.62
0.49 0.49 0.47 0.49 0.49 0.50 0.56 0.62 0.71 0.92 1.20 1.35 1.27 1.20 1.08 1.07 1.08 1.04 1.05 1.02 0.96 0.76 0.76 1.08 1.64 2.36 2.61 2.62 2.55 1.97 1.43 1.10 0.92 0.82 0.75 0.68 0.65 0.64
0.53 0.53 0.44 0.39 0.46 0.52 0.55 0.60 0.71 0.84 1.08 1.39 1.46 1.22 1.13 1.08 1.10 1.12 1.16 1.19 1.09 0.79 0.79 1.06 1.45 2.10 2.32 2.36 2.26 1.69 1.27 1.01 0.88 0.81 0.76 0.71 0.66 0.66
0.50 0.51 0.53 0.52 0.49 0.51 0.55 0.66 0.80 0.92 1.01 1.08 1.36 1.19 0.98 0.95 1.00 1.02 1.09 1.13 1.06 0.86 0.81 1.07 1.40 1.84 1.87 1.96 1.90 1.49 1.16 0.97 0.85 0.76 0.72 0.69 0.64 0.64
0.45 0.44 0.42 0.45 0.49 0.59 0.72 0.93 1.06 1.18 1.13 1.25 1.40 1.34 1.19 1.08 0.94 0.93 1.10 1.12 1.09 0.96 0.84 1.00 1.25 1.40 1.52 1.63 1.52 1.36 1.14 0.97 0.86 0.76 0.70 0.65 0.59 0.61
0.47 0.49 0.43 0.40 0.50 0.66 0.89 1.15 1.27 1.35 1.22 1.31 1.53 1.56 1.39 1.33 1.27 1.14 1.17 1.13 1.08 1.07 0.86 0.87 1.07 1.08 1.33 1.40 1.30 1.20 1.14 1.12 1.00 0.88 0.77 0.65 0.52 0.51
0.47 0.56 0.56 0.49 0.57 0.75 0.95 1.13 1.29 1.31 1.32 1.36 1.37 1.38 1.44 1.43 1.33 1.23 1.15 1.07 1.00 0.98 0.76 0.78 0.97 1.01 1.14 1.26 1.27 1.26 1.18 1.15 1.06 1.04 1.02 0.85 0.67 0.57
0.52 0.56 0.58 0.56 0.62 0.81 0.97 1.19 1.39 1.47 1.42 1.40 1.24 1.16 1.12 1.11 1.10 1.01 0.92 0.83 0.80 0.78 0.70 0.74 0.93 1.05 1.01 1.02 1.25 1.32 1.31 1.32 1.22 1.15 1.13 1.03 0.88 0.81
0.41 0.47 0.53 0.57 0.73 1.04 1.20 1.35 1.49 1.58 1.56 1.39 1.19 1.08 0.94 0.84 0.82 0.85 0.81 0.73 0.66 0.57 0.50 0.58 0.78 0.92 0.94 0.98 1.20 1.30 1.38 1.53 1.44 1.35 1.21 1.09 1.02 0.92
0.40 0.52 0.62 0.70 0.89 1.19 1.39 1.56 1.59 1.48 1.30 1.20 1.08 1.00 0.85 0.77 0.75 0.69 0.67 0.64 0.66 0.65 0.53 0.50 0.62 0.77 0.88 0.89 1.00 1.15 1.24 1.57 1.56 1.33 1.22 1.18 1.08 0.95
0.35 0.55 0.71 0.84 1.04 1.24 1.40 1.46 1.43 1.32 1.20 1.01 0.91 0.93 0.90 0.81 0.74 0.63 0.56 0.52 0.58 0.62 0.59 0.53 0.54 0.58 0.60 0.67 0.84 0.99 1.09 1.31 1.37 1.17 1.01 1.07 1.10 0.97
0.37 0.57 0.69 0.79 0.97 1.18 1.31 1.27 1.18 1.12 1.02 0.89 0.81 0.78 0.78 0.74 0.70 0.59 0.50 0.49 0.56 0.52 0.46 0.43 0.44 0.48 0.48 0.53 0.69 0.80 0.89 1.06 1.07 0.90 0.72 0.78 1.05 1.06
0.37 0.55 0.66 0.76 0.92 1.07 1.13 1.11 1.07 0.98 0.89 0.82 0.77 0.70 0.64 0.60 0.54 0.48 0.44 0.46 0.46 0.43 0.37 0.31 0.31 0.37 0.46 0.65 0.75 0.78 0.79 0.85 0.81 0.73 0.67 0.67 0.90 1.04
0.40 0.56 0.66 0.72 0.79 0.86 0.93 0.98 1.00 0.92 0.80 0.75 0.74 0.70 0.62 0.55 0.46 0.42 0.40 0.36 0.36 0.36 0.34 0.27 0.22 0.25 0.33 0.48 0.69 0.77 0.69 0.62 0.56 0.58 0.58 0.62 0.76 0.84
0.45 0.56 0.62 0.68 0.69 0.70 0.75 0.81 0.84 0.82 0.74 0.69 0.68 0.65 0.59 0.51 0.41 0.33 0.28 0.18 0.21 0.27 0.28 0.25 0.19 0.15 0.18 0.25 0.41 0.54 0.54 0.55 0.46 0.40 0.39 0.41 0.46 0.46
0.43 0.50 0.56 0.59 0.57 0.57 0.58 0.62 0.65 0.65 0.62 0.59 0.57 0.54 0.47 0.37 0.31 0.25 0.22 0.21 0.23 0.22 0.19 0.14 0.11 0.10 0.12 0.22 0.34 0.41 0.39 0.35 0.32 0.31 0.31 0.28 0.27 0.38
0.40 0.42 0.44 0.46 0.45 0.44 0.44 0.45 0.50 0.53 0.54 0.56 0.53 0.47 0.38 0.30 0.25 0.19 0.16 0.14 0.15 0.13 0.13 0.13 0.09 0.08 0.08 0.13 0.19 0.24 0.24 0.23 0.21 0.22 0.27 0.33 0.34 0.41

GEFSNE_prec_meanprecacc_174.txt.gz
Total_Precipitation_Accumulation
0.99 1.04 1.09 1.07 1.09 1.14 1.19 1.26 1.35 1.32 1.20 1.03 0.98 0.93 0.90 0.88 0.96 0.83 0.83 0.78 0.76 0.83 0.85 0.90 0.97 1.11 1.15 1.04 0.95 0.86 0.82 0.84 0.91 1.01 1.18 1.36 1.52 1.67
0.79 0.78 0.78 0.77 0.80 0.83 0.90 0.99 1.09 1.17 1.16 0.99 0.91 0.95 0.93 0.85 0.98 0.89 0.85 0.85 0.82 1.02 1.14 1.08 1.05 1.22 1.37 1.31 1.13 1.00 0.93 0.90 0.90 0.93 1.02 1.15 1.30 1.45
0.57 0.59 0.64 0.64 0.67 0.69 0.71 0.82 0.98 1.09 1.19 1.03 0.90 0.94 0.98 0.93 0.96 0.94 0.89 0.87 0.97 1.36 1.58 1.76 1.50 1.40 1.48 1.43 1.29 1.10 0.98 0.94 0.96 1.00 1.07 1.15 1.19 1.23
0.49 0.52 0.55 0.57 0.59 0.62 0.67 0.75 0.87 1.04 1.21 1.18 1.02 1.02 1.02 1.00 1.06 1.05 0.93 0.82 0.87 1.32 1.65 1.97 1.94 1.73 1.73 1.57 1.37 1.15 1.01 0.95 0.98 1.03 1.07 1.10 1.15 1.20
0.45 0.50 0.55 0.63 0.65 0.67 0.72 0.75 0.81 0.90 1.10 1.22 1.14 1.12 1.17 1.19 1.31 1.21 1.05 1.01 0.83 1.08 1.50 1.84 2.03 2.09 2.18 2.02 1.70 1.33 1.06 0.93 0.87 0.90 0.95 0.98 0.99 0.99
0.42 0.49 0.56 0.66 0.73 0.75 0.74 0.77 0.82 0.91 1.02 1.18 1.22 1.22 1.26 1.32 1.37 1.35 1.19 1.04 0.92 0.91 1.36 1.84 2.18 2.23 2.42 2.52 2.20 1.69 1.26 0.98 0.84 0.78 0.73 0.70 0.70 0.70
0.45 0.47 0.52 0.63 0.72 0.68 0.64 0.67 0.79 0.97 1.04 1.18 1.24 1.22 1.19 1.28 1.29 1.14 1.06 0.97 0.87 0.84 1.04 1.45 2.13 2.47 2.55 2.63 2.51 1.99 1.50 1.15 0.91 0.78 0.69 0.64 0.64 0.63
0.50 0.51 0.48 0.51 0.51 0.51 0.57 0.63 0.72 0.93 1.21 1.37 1.32 1.25 1.12 1.10 1.11 1.07 1.07 1.03 0.98 0.78 0.77 1.09 1.65 2.37 2.62 2.63 2.57 2.00 1.46 1.12 0.94 0.83 0.76 0.69 0.66 0.66
0.55 0.55 0.45 0.40 0.47 0.52 0.56 0.61 0.72 0.85 1.09 1.42 1.50 1.27 1.17 1.11 1.14 1.16 1.18 1.20 1.11 0.81 0.80 1.08 1.46 2.11 2.33 2.37 2.27 1.71 1.29 1.03 0.90 0.82 0.77 0.72 0.67 0.68
0.51 0.52 0.55 0.53 0.50 0.52 0.56 0.66 0.81 0.93 1.02 1.11 1.39 1.22 1.01 0.99 1.03 1.06 1.13 1.16 1.08 0.88 0.83 1.10 1.43 1.87 1.89 1.97 1.91 1.50 1.18 0.99 0.87 0.77 0.72 0.70 0.65 0.66
0.46 0.45 0.44 0.46 0.50 0.61 0.73 0.94 1.07 1.18 1.14 1.28 1.42 1.36 1.22 1.12 0.98 0.97 1.15 1.19 1.13 0.99 0.88 1.03 1.29 1.43 1.54 1.64 1.53 1.37 1.15 0.98 0.87 0.77 0.70 0.66 0.60 0.62
0.48 0.50 0.44 0.41 0.52 0.68 0.91 1.17 1.29 1.36 1.23 1.32 1.55 1.58 1.41 1.37 1.31 1.17 1.22 1.20 1.13 1.11 0.90 0.91 1.10 1.11 1.35 1.41 1.31 1.21 1.14 1.12 1.01 0.88 0.78 0.65 0.53 0.51
0.48 0.56 0.56 0.50 0.57 0.77 0.97 1.15 1.31 1.33 1.33 1.38 1.39 1.40 1.46 1.46 1.37 1.26 1.18 1.12 1.07 1.03 0.81 0.82 1.00 1.02 1.15 1.27 1.29 1.26 1.19 1.15 1.06 1.05 1.03 0.86 0.68 0.58
0.52 0.56 0.58 0.57 0.62 0.82 0.98 1.21 1.42 1.48 1.43 1.41 1.26 1.18 1.14 1.13 1.13 1.04 0.94 0.85 0.82 0.82 0.75 0.77 0.96 1.08 1.04 1.03 1.26 1.32 1.32 1.32 1.22 1.15 1.13 1.04 0.89 0.82
0.41 0.47 0.53 0.57 0.74 1.04 1.21 1.36 1.52 1.60 1.58 1.41 1.21 1.10 0.96 0.87 0.85 0.87 0.83 0.76 0.69 0.60 0.54 0.62 0.82 0.96 0.97 1.00 1.21 1.30 1.38 1.54 1.45 1.36 1.22 1.10 1.03 0.93
0.40 0.52 0.62 0.70 0.90 1.21 1.40 1.57 1.61 1.50 1.31 1.22 1.10 1.02 0.87 0.78 0.78 0.71 0.68 0.66 0.68 0.68 0.55 0.52 0.64 0.78 0.90 0.90 1.00 1.15 1.24 1.57 1.57 1.34 1.22 1.18 1.09 0.96
0.36 0.55 0.72 0.85 1.05 1.27 1.43 1.47 1.44 1.33 1.21 1.02 0.92 0.94 0.91 0.81 0.75 0.64 0.57 0.53 0.60 0.63 0.61 0.54 0.54 0.59 0.61 0.67 0.84 0.99 1.09 1.31 1.37 1.17 1.01 1.07 1.11 0.98
0.37 0.57 0.70 0.80 0.99 1.20 1.33 1.30 1.19 1.12 1.02 0.89 0.82 0.79 0.78 0.74 0.70 0.60 0.50 0.50 0.56 0.53 0.47 0.43 0.45 0.48 0.49 0.53 0.69 0.80 0.89 1.07 1.08 0.91 0.72 0.79 1.05 1.07
0.38 0.56 0.67 0.77 0.94 1.08 1.13 1.12 1.08 0.99 0.89 0.82 0.77 0.70 0.64 0.60 0.55 0.49 0.45 0.47 0.47 0.44 0.38 0.31 0.31 0.37 0.46 0.65 0.75 0.78 0.79 0.85 0.81 0.74 0.67 0.67 0.90 1.04
0.41 0.57 0.68 0.73 0.80 0.87 0.93 0.98 1.00 0.92 0.81 0.75 0.74 0.70 0.63 0.55 0.47 0.43 0.42 0.39 0.38 0.38 0.34 0.28 0.22 0.25 0.33 0.48 0.69 0.77 0.69 0.62 0.57 0.58 0.58 0.62 0.76 0.84
0.46 0.57 0.63 0.68 0.70 0.70 0.75 0.81 0.84 0.82 0.75 0.70 0.68 0.66 0.59 0.52 0.43 0.35 0.31 0.21 0.24 0.29 0.29 0.26 0.19 0.15 0.18 0.25 0.41 0.54 0.54 0.55 0.46 0.40 0.39 0.41 0.46 0.46
0.44 0.51 0.56 0.60 0.58 0.57 0.59 0.63 0.65 0.66 0.62 0.59 0.57 0.55 0.48 0.38 0.33 0.28 0.25 0.23 0.25 0.23 0.19 0.15 0.12 0.10 0.13 0.22 0.34 0.41 0.39 0.35 0.32 0.31 0.31 0.28 0.27 0.38
0.41 0.42 0.45 0.47 0.46 0.45 0.45 0.47 0.50 0.54 0.55 0.56 0.53 0.47 0.38 0.32 0.27 0.23 0.18 0.16 0.16 0.15 0.14 0.14 0.10 0.08 0.09 0.13 0.20 0.24 0.24 0.23 0.21 0.22 0.27 0.33 0.34 0.42

GEFSNE_prec_meanprecacc_180.txt.gz
Total_Precipitation_Accumulation
1.03 1.09 1.14 1.14 1.16 1.22 1.26 1.33 1.42 1.38 1.26 1.07 1.01 0.96 0.93 0.91 1.00 0.86 0.86 0.82 0.80 0.87 0.90 0.96 1.03 1.16 1.21 1.10 0.99 0.90 0.87 0.90 0.97 1.06 1.22 1.41 1.58 1.73
0.84 0.83 0.84 0.84 0.89 0.92 1.00 1.09 1.19 1.27 1.24 1.04 0.95 0.98 0.96 0.88 1.03 0.94 0.90 0.88 0.85 1.06 1.20 1.15 1.12 1.28 1.43 1.37 1.19 1.05 0.98 0.96 0.95 0.97 1.05 1.18 1.33 1.49
0.61 0.63 0.67 0.69 0.73 0.75 0.78 0.91 1.09 1.21 1.28 1.09 0.95 0.97 1.01 1.00 1.05 1.00 0.92 0.89 1.00 1.40 1.63 1.81 1.56 1.46 1.55 1.50 1.37 1.17 1.04 0.99 1.01 1.05 1.11 1.19 1.22 1.25
0.52 0.56 0.58 0.60 0.62 0.67 0.72 0.80 0.95 1.13 1.31 1.28 1.08 1.06 1.06 1.05 1.12 1.11 0.97 0.84 0.90 1.34 1.67 1.99 1.96 1.76 1.77 1.61 1.42 1.19 1.06 0.99 1.01 1.06 1.10 1.12 1.17 1.22
0.48 0.53 0.57 0.65 0.68 0.69 0.75 0.79 0.88 1.00 1.21 1.32 1.23 1.19 1.21 1.22 1.33 1.24 1.08 1.03 0.85 1.09 1.52 1.86 2.05 2.12 2.21 2.05 1.74 1.37 1.10 0.95 0.90 0.92 0.96 0.99 1.00 1.00
0.43 0.51 0.57 0.68 0.75 0.78 0.77 0.80 0.86 0.96 1.10 1.27 1.30 1.29 1.32 1.35 1.40 1.38 1.22 1.08 0.95 0.93 1.37 1.86 2.22 2.26 2.44 2.55 2.23 1.73 1.29 1.01 0.87 0.80 0.74 0.72 0.71 0.71
0.47 0.49 0.53 0.64 0.73 0.70 0.66 0.69 0.81 1.00 1.08 1.23 1.30 1.29 1.25 1.34 1.33 1.18 1.10 1.01 0.90 0.87 1.07 1.48 2.16 2.52 2.59 2.67 2.55 2.03 1.53 1.18 0.94 0.81 0.72 0.67 0.66 0.64
0.51 0.52 0.50 0.52 0.51 0.52 0.58 0.64 0.74 0.95 1.24 1.42 1.38 1.31 1.18 1.16 1.17 1.12 1.11 1.08 1.03 0.82 0.81 1.12 1.68 2.41 2.67 2.67 2.62 2.04 1.50 1.17 0.99 0.88 0.80 0.73 0.70 0.68
0.56 0.56 0.46 0.40 0.48 0.53 0.57 0.62 0.73 0.87 1.13 1.46 1.55 1.32 1.23 1.18 1.21 1.21 1.23 1.26 1.15 0.85 0.84 1.12 1.51 2.17 2.37 2.40 2.30 1.74 1.32 1.06 0.93 0.85 0.81 0.77 0.72 0.71
0.52 0.53 0.56 0.54 0.50 0.52 0.57 0.68 0.82 0.95 1.05 1.14 1.43 1.27 1.06 1.04 1.09 1.12 1.19 1.21 1.12 0.92 0.88 1.16 1.49 1.93 1.93 2.01 1.95 1.53 1.21 1.01 0.89 0.79 0.75 0.72 0.68 0.68
0.46 0.45 0.45 0.48 0.51 0.61 0.75 0.96 1.08 1.20 1.16 1.30 1.45 1.40 1.25 1.15 1.02 1.02 1.20 1.23 1.18 1.03 0.92 1.09 1.36 1.50 1.60 1.69 1.56 1.40 1.17 1.00 0.88 0.79 0.72 0.67 0.61 0.63
0.49 0.50 0.45 0.42 0.52 0.68 0.92 1.19 1.31 1.38 1.24 1.34 1.57 1.61 1.43 1.38 1.33 1.20 1.26 1.25 1.18 1.16 0.94 0.96 1.15 1.17 1.42 1.47 1.34 1.22 1.15 1.13 1.01 0.89 0.79 0.66 0.54 0.52
0.49 0.57 0.56 0.50 0.58 0.77 0.97 1.16 1.32 1.34 1.36 1.40 1.41 1.43 1.49 1.48 1.40 1.29 1.22 1.17 1.13 1.09 0.85 0.86 1.04 1.07 1.20 1.31 1.31 1.28 1.20 1.16 1.06 1.05 1.03 0.86 0.68 0.58
0.53 0.56 0.58 0.57 0.62 0.82 0.98 1.22 1.42 1.49 1.45 1.44 1.28 1.22 1.17 1.17 1.17 1.08 0.98 0.89 0.87 0.86 0.78 0.79 0.99 1.12 1.07 1.06 1.28 1.34 1.33 1.34 1.23 1.16 1.14 1.05 0.90 0.83
0.41 0.48 0.53 0.57 0.74 1.04 1.21 1.37 1.53 1.61 1.60 1.44 1.24 1.14 0.99 0.90 0.89 0.91 0.87 0.78 0.71 0.62 0.55 0.63 0.84 1.00 1.01 1.03 1.23 1.32 1.40 1.55 1.46 1.36 1.22 1.11 1.04 0.93
0.40 0.53 0.63 0.70 0.90 1.21 1.40 1.57 1.61 1.51 1.34 1.25 1.13 1.05 0.89 0.81 0.81 0.74 0.71 0.68 0.70 0.69 0.57 0.53 0.65 0.81 0.93 0.93 1.03 1.17 1.25 1.58 1.58 1.35 1.23 1.19 1.09 0.97
0.36 0.56 0.72 0.85 1.06 1.27 1.44 1.48 1.45 1.34 1.23 1.04 0.94 0.96 0.93 0.84 0.77 0.65 0.59 0.56 0.62 0.66 0.63 0.56 0.57 0.61 0.63 0.69 0.86 1.00 1.11 1.33 1.39 1.18 1.03 1.08 1.12 0.99
0.38 0.58 0.71 0.81 1.00 1.20 1.34 1.31 1.20 1.13 1.03 0.90 0.83 0.79 0.79 0.75 0.71 0.60 0.51 0.51 0.58 0.55 0.50 0.47 0.48 0.51 0.51 0.55 0.70 0.81 0.90 1.08 1.10 0.93 0.74 0.80 1.06 1.08
0.39 0.57 0.68 0.78 0.95 1.09 1.14 1.13 1.09 0.99 0.89 0.82 0.78 0.71 0.65 0.61 0.55 0.49 0.45 0.49 0.49 0.46 0.40 0.35 0.35 0.41 0.50 0.68 0.76 0.78 0.81 0.87 0.83 0.76 0.69 0.69 0.92 1.06
0.43 0.59 0.70 0.75 0.81 0.88 0.94 1.00 1.01 0.93 0.81 0.76 0.75 0.71 0.64 0.56 0.48 0.44 0.43 0.40 0.40 0.40 0.37 0.32 0.26 0.28 0.36 0.50 0.71 0.78 0.70 0.63 0.58 0.60 0.60 0.63 0.78 0.86
0.47 0.58 0.65 0.70 0.72 0.71 0.76 0.82 0.85 0.83 0.75 0.70 0.68 0.66 0.60 0.53 0.44 0.37 0.32 0.23 0.26 0.32 0.32 0.28 0.21 0.17 0.20 0.28 0.44 0.55 0.55 0.56 0.47 0.42 0.41 0.42 0.47 0.48
0.45 0.52 0.57 0.61 0.59 0.59 0.60 0.63 0.66 0.67 0.64 0.61 0.59 0.56 0.49 0.40 0.35 0.30 0.27 0.25 0.27 0.25 0.21 0.17 0.14 0.13 0.15 0.25 0.37 0.43 0.41 0.36 0.33 0.32 0.32 0.29 0.29 0.39
0.42 0.43 0.45 0.48 0.47 0.46 0.46 0.48 0.51 0.54 0.56 0.57 0.54 0.49 0.40 0.34 0.29 0.24 0.19 0.17 0.17 0.16 0.16 0.16 0.13 0.12 0.13 0.16 0.22 0.26 0.26 0.26 0.23 0.23 0.28 0.34 0.35 0.42

GEFSNE_prec_meanprecacc_186.txt.gz
Total_Precipitation_Accumulation
1.06 1.13 1.20 1.19 1.22 1.28 1.34 1.43 1.52 1.47 1.34 1.14 1.09 1.05 1.01 0.97 1.04 0.90 0.89 0.86 0.83 0.91 0.94 0.99 1.06 1.19 1.25 1.15 1.05 0.96 0.93 0.94 1.01 1.10 1.26 1.44 1.61 1.77
0.87 0.87 0.89 0.90 0.95 0.99 1.07 1.16 1.27 1.35 1.32 1.11 1.04 1.09 1.06 0.96 1.09 0.98 0.93 0.90 0.87 1.09 1.23 1.17 1.14 1.30 1.46 1.42 1.24 1.11 1.04 1.00 0.99 1.00 1.09 1.21 1.36 1.52
0.66 0.69 0.74 0.76 0.80 0.83 0.86 1.00 1.17 1.29 1.36 1.15 1.01 1.06 1.13 1.09 1.12 1.05 0.95 0.92 1.02 1.42 1.65 1.84 1.58 1.48 1.56 1.53 1.41 1.21 1.09 1.03 1.04 1.08 1.14 1.21 1.25 1.28
0.60 0.65 0.66 0.67 0.69 0.74 0.81 0.88 1.02 1.20 1.37 1.33 1.14 1.14 1.15 1.12 1.18 1.16 1.00 0.87 0.91 1.36 1.70 2.02 1.99 1.77 1.78 1.62 1.44 1.22 1.09 1.02 1.04 1.09 1.13 1.15 1.20 1.25
0.55 0.61 0.66 0.73 0.73 0.75 0.81 0.83 0.92 1.05 1.27 1.37 1.28 1.24 1.28 1.27 1.37 1.27 1.11 1.07 0.87 1.11 1.54 1.88 2.08 2.13 2.21 2.06 1.75 1.39 1.13 0.99 0.94 0.96 1.00 1.02 1.03 1.03
0.50 0.57 0.62 0.72 0.78 0.81 0.81 0.83 0.88 1.00 1.15 1.32 1.34 1.34 1.39 1.42 1.45 1.42 1.26 1.11 0.98 0.95 1.39 1.88 2.23 2.27 2.45 2.56 2.25 1.75 1.32 1.05 0.91 0.85 0.80 0.76 0.75 0.74
0.50 0.52 0.56 0.65 0.73 0.71 0.68 0.71 0.84 1.03 1.11 1.27 1.34 1.33 1.31 1.42 1.41 1.24 1.15 1.06 0.95 0.91 1.10 1.50 2.18 2.53 2.61 2.68 2.56 2.04 1.56 1.22 0.98 0.86 0.78 0.73 0.72 0.69
0.54 0.54 0.51 0.53 0.52 0.53 0.59 0.66 0.76 0.97 1.27 1.46 1.42 1.34 1.21 1.20 1.22 1.17 1.17 1.14 1.10 0.88 0.87 1.17 1.72 2.45 2.70 2.69 2.63 2.05 1.51 1.19 1.01 0.90 0.84 0.79 0.78 0.76
0.59 0.59 0.48 0.42 0.49 0.55 0.59 0.65 0.76 0.90 1.15 1.48 1.58 1.36 1.26 1.22 1.26 1.26 1.29 1.33 1.22 0.91 0.90 1.18 1.55 2.20 2.41 2.43 2.33 1.76 1.34 1.08 0.95 0.87 0.83 0.79 0.74 0.75
0.55 0.57 0.59 0.56 0.52 0.55 0.60 0.72 0.87 0.99 1.07 1.16 1.46 1.30 1.09 1.07 1.14 1.17 1.25 1.28 1.19 0.99 0.95 1.22 1.53 1.97 1.97 2.04 1.98 1.56 1.23 1.03 0.90 0.81 0.77 0.74 0.70 0.71
0.48 0.47 0.46 0.49 0.52 0.63 0.78 1.01 1.14 1.25 1.19 1.32 1.49 1.43 1.27 1.17 1.05 1.06 1.26 1.30 1.26 1.10 0.99 1.16 1.41 1.55 1.65 1.74 1.59 1.43 1.18 1.01 0.89 0.80 0.73 0.68 0.63 0.65
0.51 0.52 0.46 0.43 0.53 0.69 0.94 1.22 1.35 1.42 1.29 1.38 1.61 1.64 1.47 1.42 1.37 1.24 1.31 1.31 1.26 1.23 0.99 1.00 1.19 1.22 1.47 1.52 1.38 1.25 1.18 1.15 1.03 0.90 0.80 0.67 0.54 0.53
0.52 0.59 0.58 0.51 0.58 0.77 0.98 1.17 1.33 1.36 1.39 1.45 1.46 1.48 1.53 1.52 1.44 1.34 1.27 1.23 1.19 1.15 0.89 0.90 1.09 1.12 1.25 1.36 1.36 1.32 1.24 1.20 1.08 1.06 1.04 0.87 0.68 0.59
0.54 0.58 0.59 0.57 0.63 0.83 0.99 1.22 1.43 1.50 1.47 1.47 1.32 1.25 1.20 1.20 1.20 1.11 1.02 0.94 0.92 0.90 0.81 0.83 1.04 1.17 1.12 1.12 1.33 1.38 1.37 1.38 1.27 1.19 1.16 1.06 0.90 0.83
0.42 0.48 0.53 0.58 0.74 1.05 1.21 1.37 1.53 1.62 1.62 1.47 1.28 1.17 1.01 0.93 0.92 0.95 0.90 0.82 0.74 0.64 0.58 0.66 0.88 1.04 1.05 1.07 1.27 1.35 1.43 1.58 1.48 1.40 1.26 1.13 1.05 0.94
0.41 0.53 0.63 0.71 0.91 1.22 1.41 1.58 1.62 1.52 1.35 1.27 1.16 1.07 0.91 0.83 0.83 0.77 0.74 0.71 0.72 0.71 0.58 0.55 0.68 0.85 0.97 0.98 1.07 1.20 1.28 1.61 1.60 1.37 1.26 1.22 1.11 0.98
0.37 0.56 0.73 0.87 1.08 1.30 1.46 1.50 1.47 1.37 1.25 1.06 0.96 0.98 0.95 0.86 0.78 0.66 0.61 0.59 0.66 0.68 0.66 0.60 0.61 0.65 0.67 0.74 0.91 1.04 1.14 1.35 1.40 1.21 1.06 1.12 1.15 1.01
0.38 0.59 0.72 0.83 1.02 1.23 1.37 1.34 1.23 1.15 1.06 0.93 0.85 0.82 0.81 0.77 0.72 0.63 0.54 0.55 0.62 0.59 0.54 0.52 0.53 0.56 0.56 0.59 0.74 0.85 0.93 1.10 1.12 0.95 0.77 0.85 1.10 1.10
0.39 0.58 0.69 0.79 0.97 1.11 1.17 1.16 1.12 1.02 0.92 0.86 0.81 0.73 0.67 0.63 0.57 0.51 0.48 0.51 0.52 0.49 0.43 0.38 0.39 0.45 0.55 0.72 0.78 0.80 0.83 0.90 0.86 0.79 0.72 0.72 0.95 1.08
0.44 0.60 0.71 0.76 0.84 0.90 0.97 1.03 1.03 0.95 0.84 0.78 0.78 0.73 0.66 0.58 0.50 0.46 0.46 0.42 0.42 0.42 0.40 0.34 0.27 0.30 0.39 0.53 0.73 0.80 0.72 0.65 0.61 0.63 0.63 0.66 0.81 0.89
0.48 0.59 0.66 0.71 0.73 0.73 0.77 0.83 0.87 0.85 0.77 0.72 0.70 0.68 0.62 0.55 0.46 0.39 0.35 0.26 0.29 0.35 0.34 0.29 0.23 0.19 0.23 0.31 0.48 0.59 0.57 0.58 0.49 0.45 0.44 0.46 0.50 0.51
0.46 0.53 0.58 0.62 0.60 0.60 0.62 0.65 0.68 0.68 0.65 0.62 0.60 0.58 0.51 0.42 0.37 0.33 0.29 0.28 0.29 0.27 0.23 0.18 0.15 0.14 0.18 0.30 0.41 0.47 0.43 0.38 0.35 0.34 0.34 0.32 0.32 0.43
0.43 0.44 0.47 0.49 0.48 0.47 0.47 0.49 0.52 0.56 0.57 0.59 0.55 0.50 0.41 0.35 0.30 0.26 0.21 0.19 0.19 0.18 0.18 0.18 0.15 0.15 0.16 0.20 0.26 0.29 0.29 0.28 0.27 0.28 0.31 0.37 0.38 0.45